Crawfordsville Regional (CFJ)

 

Airport Diagram
No Airport Diagram Available
Current Weather/Forecast (VFR Conditions)
METAR KCFJ 071355Z AUTO 00000KT 10SM CLR 10/04 A3005 RMK AO2 T01010044
TAF

Airport Information

All Charts
General
Chart Name View
TAKEOFF MINIMUMS
ALTERNATE MINIMUMS

Approaches
Chart Name Download
RNAV (GPS) RWY 04
RNAV (GPS) RWY 22
NDB RWY 04


Airport Statistics
Departures Arrivals Local
All Collected Stats since June 2016: 8 8 1
2021 Stats: 2 2 1
May Stats: 0 1 0

Inbound Traffic (Arrivals) - 0

No inbound traffic.


Outbound Traffic (Departures) - 0

No outbound traffic.


Local Traffic (Pattern) - 0

No local traffic.